| time (UTC) | temp F | wind direction | speed MPH | gust MPH | rain 1hr in | rain 24hr in | rain mn in | humidity % | barometer mb |
| 20260506091109 | 56 | 136 | 0.0 | 0.0 | 0.00 | 0.00 | 0.00 | 92 | 1018.3 |
| 20260506090607 | 57 | 136 | 0.0 | 0.0 | 0.00 | 0.00 | 0.00 | 92 | 1018.3 |
| 20260506085600 | 56 | 135 | 0.0 | 0.0 | 0.00 | 0.00 | 0.00 | 92 | 1018.3 |
| 20260506085056 | 56 | 135 | 0.0 | 0.0 | 0.00 | 0.00 | 0.00 | 92 | 1018.3 |
| 20260506084553 | 56 | 136 | 0.0 | 0.0 | 0.00 | 0.00 | 0.00 | 91 | 1018.3 |
| 20260506084049 | 56 | 136 | 0.0 | 0.0 | 0.00 | 0.00 | 0.00 | 91 | 1018.3 |
| 20260506083547 | 57 | 136 | 0.0 | 0.0 | 0.00 | 0.00 | 0.00 | 91 | 1018.3 |
| 20260506083044 | 57 | 136 | 0.0 | 0.0 | 0.00 | 0.00 | 0.00 | 92 | 1018.3 |
| 20260506082540 | 56 | 136 | 0.0 | 0.0 | 0.00 | 0.00 | 0.00 | 91 | 1018.3 |
| 20260506082036 | 57 | 136 | 0.0 | 0.0 | 0.00 | 0.00 | 0.00 | 91 | 1018.3 |
| 20260506081535 | 57 | 136 | 0.0 | 0.0 | 0.00 | 0.00 | 0.00 | 92 | 1018.3 |
| 20260506081032 | 57 | 136 | 0.0 | 0.0 | 0.00 | 0.00 | 0.00 | 92 | 1018.3 |
| 20260506080529 | 57 | 136 | 0.0 | 0.0 | 0.00 | 0.00 | 0.00 | 92 | 1018.3 |
| 20260506073513 | 57 | 136 | 0.0 | 0.0 | 0.00 | 0.00 | 0.00 | 91 | 1018.6 |
| 20260506073010 | 57 | 136 | 0.0 | 0.0 | 0.00 | 0.00 | 0.00 | 91 | 1018.3 |
| 20260506072507 | 58 | 136 | 0.0 | 0.0 | 0.00 | 0.00 | 0.00 | 91 | 1018.3 |
| 20260506072005 | 58 | 136 | 0.0 | 0.0 | 0.00 | 0.00 | 0.00 | 90 | 1018.3 |
| 20260506071502 | 58 | 137 | 0.0 | 0.0 | 0.00 | 0.00 | 0.00 | 90 | 1018.3 |
| 20260506070959 | 58 | 137 | 0.0 | 0.0 | 0.00 | 0.00 | 0.00 | 89 | 1017.9 |
| 20260506070456 | 59 | 137 | 0.0 | 0.0 | 0.00 | 0.00 | 0.00 | 89 | 1018.3 |
| 20260506062434 | 59 | 124 | 0.0 | 0.0 | 0.00 | 0.00 | 0.00 | 87 | 1018.3 |
| 20260506061929 | 59 | 117 | 0.0 | 0.0 | 0.00 | 0.00 | 0.00 | 87 | 1017.9 |
| 20260506061426 | 59 | 118 | 0.0 | 0.0 | 0.00 | 0.00 | 0.00 | 87 | 1017.9 |
| 20260506060924 | 59 | 119 | 0.0 | 0.0 | 0.00 | 0.00 | 0.00 | 87 | 1017.9 |
| 20260506060422 | 59 | 120 | 0.0 | 0.0 | 0.00 | 0.00 | 0.00 | 87 | 1017.9 |
| 20260506051354 | 60 | 104 | 0.0 | 0.0 | 0.00 | 0.00 | 0.00 | 81 | 1017.6 |
| 20260506050851 | 59 | 56 | 0.0 | 0.0 | 0.00 | 0.00 | 0.00 | 82 | 1017.3 |
| 20260506050349 | 59 | 55 | 0.0 | 0.0 | 0.00 | 0.00 | 0.00 | 84 | 1017.3 |
| 20260506044839 | 59 | 291 | 0.0 | 0.0 | 0.00 | 0.00 | 0.00 | 87 | 1016.9 |
| 20260506044337 | 59 | 290 | 0.0 | 0.0 | 0.00 | 0.00 | 0.00 | 87 | 1017.3 |
| 20260506043834 | 60 | 290 | 0.0 | 0.0 | 0.00 | 0.00 | 0.00 | 86 | 1017.3 |
| 20260506043331 | 60 | 289 | 0.0 | 0.0 | 0.00 | 0.00 | 0.00 | 86 | 1017.3 |
| 20260506042829 | 60 | 287 | 0.0 | 0.0 | 0.00 | 0.00 | 0.00 | 86 | 1016.6 |
| 20260506042328 | 60 | 278 | 0.0 | 0.0 | 0.00 | 0.00 | 0.00 | 86 | 1016.9 |
| 20260506041827 | 60 | 286 | 0.0 | 0.0 | 0.00 | 0.00 | 0.00 | 86 | 1016.9 |
| 20260506041323 | 60 | 282 | 0.0 | 0.0 | 0.00 | 0.00 | 0.00 | 86 | 1016.9 |
| 20260506040820 | 60 | 281 | 0.0 | 0.0 | 0.00 | 0.00 | 0.00 | 86 | 1016.6 |
| 20260506040317 | 60 | 267 | 0.0 | 0.0 | 0.00 | 0.00 | 0.00 | 86 | 1016.6 |
| 20260506035814 | 60 | 261 | 0.0 | 0.0 | 0.00 | 0.00 | 0.00 | 86 | 1016.6 |
| 20260506035311 | 60 | 241 | 0.0 | 0.0 | 0.00 | 0.00 | 0.00 | 86 | 1016.6 |
| 20260506034809 | 60 | 262 | 0.0 | 0.0 | 0.00 | 0.00 | 0.00 | 86 | 1016.6 |
| 20260506034305 | 60 | 264 | 0.0 | 0.0 | 0.00 | 0.00 | 0.00 | 86 | 1016.6 |
| 20260506033802 | 60 | 241 | 0.0 | 0.0 | 0.00 | 0.00 | 0.00 | 86 | 1016.2 |
| 20260506033259 | 60 | 276 | 0.0 | 0.0 | 0.00 | 0.00 | 0.00 | 86 | 1016.2 |
| 20260506032756 | 60 | 256 | 0.0 | 0.0 | 0.00 | 0.00 | 0.00 | 86 | 1016.2 |
| 20260506032253 | 60 | 256 | 0.0 | 0.0 | 0.00 | 0.00 | 0.00 | 86 | 1016.2 |
| 20260506031749 | 61 | 235 | 0.0 | 0.0 | 0.00 | 0.00 | 0.00 | 86 | 1016.2 |
| 20260506031247 | 61 | 229 | 0.0 | 0.0 | 0.00 | 0.00 | 0.00 | 85 | 1016.2 |
| 20260506030745 | 61 | 201 | 0.0 | 0.0 | 0.00 | 0.00 | 0.00 | 85 | 1015.9 |
| 20260506030243 | 61 | 204 | 0.0 | 0.0 | 0.00 | 0.00 | 0.00 | 85 | 1015.9 |
| 20260506025739 | 61 | 168 | 0.0 | 0.0 | 0.00 | 0.00 | 0.00 | 84 | 1015.9 |
| 20260506025236 | 61 | 167 | 0.0 | 0.0 | 0.00 | 0.00 | 0.00 | 84 | 1015.6 |
| 20260506024733 | 61 | 224 | 0.0 | 0.0 | 0.00 | 0.00 | 0.00 | 84 | 1015.6 |
| 20260506024229 | 61 | 215 | 0.0 | 0.0 | 0.00 | 0.00 | 0.00 | 83 | 1015.9 |
| 20260506023725 | 62 | 219 | 0.0 | 0.0 | 0.00 | 0.00 | 0.00 | 81 | 1015.6 |
| 20260506023223 | 62 | 241 | 0.0 | 0.0 | 0.00 | 0.00 | 0.00 | 80 | 1015.6 |
| 20260506022719 | 62 | 232 | 0.0 | 0.0 | 0.00 | 0.00 | 0.00 | 80 | 1015.6 |
| 20260506022217 | 62 | 228 | 0.0 | 0.0 | 0.00 | 0.00 | 0.00 | 80 | 1015.6 |
| 20260506021715 | 63 | 252 | 0.0 | 0.0 | 0.00 | 0.00 | 0.00 | 79 | 1015.6 |
| 20260506021212 | 64 | 234 | 0.0 | 0.0 | 0.00 | 0.00 | 0.00 | 77 | 1015.6 |
| 20260506020708 | 64 | 170 | 4.0 | 6.0 | 0.00 | 0.00 | 0.00 | 75 | 1015.2 |
| 20260506020206 | 64 | 195 | 5.0 | 6.0 | 0.00 | 0.00 | 0.00 | 73 | 1015.6 |
| 20260506015704 | 65 | 180 | 0.0 | 0.0 | 0.00 | 0.00 | 0.00 | 69 | 1015.2 |
| 20260506015201 | 65 | 203 | 0.0 | 0.0 | 0.00 | 0.00 | 0.00 | 66 | 1015.6 |
| 20260506014658 | 65 | 243 | 0.0 | 0.0 | 0.00 | 0.00 | 0.00 | 64 | 1015.2 |
| 20260506014154 | 65 | 212 | 0.0 | 0.0 | 0.00 | 0.00 | 0.00 | 63 | 1014.9 |
| 20260506013652 | 64 | 234 | 0.0 | 0.0 | 0.00 | 0.00 | 0.00 | 63 | 1015.2 |
| 20260506013149 | 64 | 217 | 0.0 | 0.0 | 0.00 | 0.00 | 0.00 | 65 | 1015.2 |
| 20260506012645 | 64 | 167 | 0.0 | 0.0 | 0.00 | 0.00 | 0.00 | 63 | 1015.2 |
| 20260506012142 | 64 | 241 | 0.0 | 0.0 | 0.00 | 0.00 | 0.00 | 62 | 1014.9 |
| 20260506011639 | 65 | 226 | 0.0 | 0.0 | 0.00 | 0.00 | 0.00 | 62 | 1014.9 |
| 20260506011135 | 65 | 187 | 0.0 | 0.0 | 0.00 | 0.00 | 0.00 | 60 | 1015.2 |
| 20260506010634 | 66 | 167 | 0.0 | 0.0 | 0.00 | 0.00 | 0.00 | 63 | 1015.2 |
| 20260506010131 | 66 | 189 | 0.0 | 0.0 | 0.00 | 0.00 | 0.00 | 63 | 1015.2 |
| 20260506005628 | 66 | 182 | 0.0 | 0.0 | 0.00 | 0.00 | 0.00 | 63 | 1015.2 |
| 20260506005124 | 66 | 160 | 0.0 | 0.0 | 0.00 | 0.00 | 0.00 | 70 | 1015.2 |
| 20260506004621 | 65 | 226 | 0.0 | 0.0 | 0.00 | 0.00 | 0.00 | 71 | 1015.2 |
| 20260506004118 | 65 | 188 | 0.0 | 0.0 | 0.00 | 0.00 | 0.00 | 71 | 1014.9 |
| 20260506003614 | 65 | 261 | 5.0 | 11.0 | 0.00 | 0.00 | 0.00 | 70 | 1015.2 |
| 20260506003110 | 64 | 221 | 6.0 | 9.0 | 0.00 | 0.00 | 0.00 | 72 | 1015.2 |
| 20260506002607 | 65 | 177 | 4.0 | 6.0 | 0.00 | 0.00 | 0.00 | 73 | 1015.2 |
| 20260506002103 | 66 | 247 | 0.0 | 0.0 | 0.00 | 0.00 | 0.00 | 73 | 1015.2 |
| 20260506001559 | 65 | 193 | 0.0 | 0.0 | 0.00 | 0.00 | 0.00 | 73 | 1015.2 |
| 20260506001056 | 66 | 243 | 4.0 | 5.0 | 0.00 | 0.00 | 0.00 | 72 | 1015.2 |
| 20260506000554 | 65 | 216 | 4.0 | 5.0 | 0.00 | 0.00 | 0.00 | 72 | 1015.2 |
| 20260506000051 | 64 | 197 | 0.0 | 0.0 | 0.00 | 0.00 | 0.00 | 73 | 1014.9 |
| 20260505235549 | 64 | 177 | 7.0 | 8.0 | 0.00 | 0.00 | 0.00 | 75 | 1015.2 |
| 20260505235046 | 64 | 237 | 8.0 | 10.0 | 0.00 | 0.00 | 0.00 | 72 | 1015.2 |
| 20260505234543 | 64 | 189 | 3.0 | 7.0 | 0.00 | 0.00 | 0.00 | 72 | 1015.2 |
| 20260505234039 | 66 | 223 | 7.0 | 10.0 | 0.00 | 0.00 | 0.00 | 69 | 1015.2 |
| 20260505233537 | 66 | 173 | 7.0 | 7.0 | 0.00 | 0.00 | 0.00 | 71 | 1015.2 |
| 20260505233034 | 66 | 245 | 6.0 | 9.0 | 0.00 | 0.00 | 0.00 | 71 | 1015.6 |
| 20260505232532 | 66 | 182 | 4.0 | 9.0 | 0.00 | 0.00 | 0.00 | 69 | 1015.2 |
| 20260505232029 | 67 | 182 | 6.0 | 7.0 | 0.00 | 0.00 | 0.00 | 66 | 1015.6 |
| 20260505231526 | 67 | 176 | 5.0 | 6.0 | 0.00 | 0.00 | 0.00 | 64 | 1014.9 |
| 20260505231025 | 67 | 228 | 5.0 | 6.0 | 0.00 | 0.00 | 0.00 | 66 | 1014.9 |
| 20260505230522 | 66 | 229 | 9.0 | 11.0 | 0.00 | 0.00 | 0.00 | 65 | 1015.2 |
| 20260505230018 | 66 | 223 | 8.0 | 14.0 | 0.00 | 0.00 | 0.00 | 63 | 1015.2 |
| 20260505225515 | 66 | 218 | 4.0 | 8.0 | 0.00 | 0.00 | 0.00 | 64 | 1015.2 |
| 20260505225011 | 66 | 193 | 4.0 | 8.0 | 0.00 | 0.00 | 0.00 | 61 | 1015.6 |
| 20260505224508 | 66 | 266 | 8.0 | 10.0 | 0.00 | 0.00 | 0.00 | 60 | 1015.2 |
| 20260505224005 | 67 | 192 | 7.0 | 8.0 | 0.00 | 0.00 | 0.00 | 57 | 1015.2 |
| 20260505223502 | 66 | 190 | 3.0 | 5.0 | 0.00 | 0.00 | 0.00 | 60 | 1015.2 |
| 20260505222958 | 67 | 186 | 4.0 | 6.0 | 0.00 | 0.00 | 0.00 | 57 | 1015.6 |
| 20260505222454 | 67 | 252 | 0.0 | 0.0 | 0.00 | 0.00 | 0.00 | 56 | 1015.6 |
| 20260505221950 | 67 | 235 | 5.0 | 7.0 | 0.00 | 0.00 | 0.00 | 56 | 1015.6 |
| 20260505221448 | 67 | 243 | 8.0 | 9.0 | 0.00 | 0.00 | 0.00 | 58 | 1015.6 |
| 20260505220945 | 67 | 193 | 5.0 | 6.0 | 0.00 | 0.00 | 0.00 | 56 | 1015.6 |
| 20260505220442 | 67 | 164 | 4.0 | 7.0 | 0.00 | 0.00 | 0.00 | 55 | 1015.6 |
| 20260505215940 | 66 | 241 | 9.0 | 10.0 | 0.00 | 0.00 | 0.00 | 57 | 1015.6 |
| 20260505215438 | 66 | 236 | 4.0 | 5.0 | 0.00 | 0.00 | 0.00 | 61 | 1015.6 |
| 20260505214935 | 66 | 204 | 5.0 | 7.0 | 0.00 | 0.00 | 0.00 | 64 | 1015.6 |
| 20260505214433 | 66 | 226 | 7.0 | 9.0 | 0.00 | 0.00 | 0.00 | 64 | 1015.6 |
| 20260505213930 | 66 | 209 | 7.0 | 9.0 | 0.00 | 0.00 | 0.00 | 66 | 1015.6 |
| 20260505213427 | 67 | 183 | 3.0 | 5.0 | 0.00 | 0.00 | 0.00 | 65 | 1015.9 |
| 20260505212923 | 66 | 250 | 8.0 | 10.0 | 0.00 | 0.00 | 0.00 | 64 | 1015.6 |
| 20260505212420 | 67 | 258 | 7.0 | 9.0 | 0.00 | 0.00 | 0.00 | 65 | 1015.9 |
| 20260505211917 | 67 | 162 | 7.0 | 9.0 | 0.00 | 0.00 | 0.00 | 64 | 1015.9 |
| 20260505211415 | 66 | 266 | 3.0 | 9.0 | 0.00 | 0.00 | 0.00 | 63 | 1015.9 |
| 20260505210910 | 66 | 236 | 8.0 | 9.0 | 0.00 | 0.00 | 0.00 | 62 | 1015.9 |
| 20260505210408 | 67 | 207 | 8.0 | 9.0 | 0.00 | 0.00 | 0.00 | 62 | 1015.9 |
| 20260505205905 | 66 | 203 | 7.0 | 8.0 | 0.00 | 0.00 | 0.00 | 63 | 1015.9 |
| 20260505205403 | 66 | 227 | 5.0 | 6.0 | 0.00 | 0.00 | 0.00 | 61 | 1015.9 |
| 20260505204900 | 66 | 217 | 10.0 | 10.0 | 0.00 | 0.00 | 0.00 | 65 | 1015.9 |
| 20260505204357 | 67 | 198 | 8.0 | 11.0 | 0.00 | 0.00 | 0.00 | 62 | 1015.9 |
| 20260505203855 | 67 | 238 | 5.0 | 7.0 | 0.00 | 0.00 | 0.00 | 60 | 1015.9 |
| 20260505203351 | 66 | 256 | 6.0 | 9.0 | 0.00 | 0.00 | 0.00 | 64 | 1015.9 |
| 20260505202847 | 66 | 240 | 7.0 | 10.0 | 0.00 | 0.00 | 0.00 | 61 | 1015.6 |
| 20260505202343 | 66 | 239 | 10.0 | 14.0 | 0.00 | 0.00 | 0.00 | 59 | 1015.9 |
| 20260505201840 | 66 | 237 | 6.0 | 8.0 | 0.00 | 0.00 | 0.00 | 62 | 1015.6 |
| 20260505201337 | 67 | 291 | 7.0 | 9.0 | 0.00 | 0.00 | 0.00 | 64 | 1015.6 |
| 20260505200836 | 66 | 233 | 7.0 | 9.0 | 0.00 | 0.00 | 0.00 | 65 | 1015.9 |
| 20260505200332 | 66 | 237 | 5.0 | 8.0 | 0.00 | 0.00 | 0.00 | 66 | 1015.6 |
| 20260505195828 | 66 | 221 | 8.0 | 13.0 | 0.00 | 0.00 | 0.00 | 66 | 1015.9 |
| 20260505195325 | 66 | 271 | 5.0 | 7.0 | 0.00 | 0.00 | 0.00 | 67 | 1015.9 |
| 20260505194822 | 66 | 231 | 5.0 | 6.0 | 0.00 | 0.00 | 0.00 | 67 | 1015.9 |
| 20260505194320 | 64 | 158 | 4.0 | 5.0 | 0.00 | 0.00 | 0.00 | 71 | 1016.2 |
| 20260505193814 | 64 | 245 | 5.0 | 8.0 | 0.00 | 0.00 | 0.00 | 71 | 1016.2 |
| 20260505193313 | 66 | 255 | 9.0 | 11.0 | 0.00 | 0.00 | 0.00 | 69 | 1016.2 |
| 20260505192811 | 66 | 231 | 5.0 | 8.0 | 0.00 | 0.00 | 0.00 | 70 | 1015.9 |
| 20260505192310 | 66 | 194 | 7.0 | 8.0 | 0.00 | 0.00 | 0.00 | 68 | 1016.6 |
| 20260505191806 | 65 | 196 | 4.0 | 8.0 | 0.00 | 0.00 | 0.00 | 70 | 1016.2 |
| 20260505191304 | 66 | 161 | 7.0 | 10.0 | 0.00 | 0.00 | 0.00 | 69 | 1016.2 |
| 20260505190800 | 66 | 217 | 7.0 | 10.0 | 0.00 | 0.00 | 0.00 | 68 | 1016.2 |
| 20260505190255 | 65 | 220 | 7.0 | 9.0 | 0.00 | 0.00 | 0.00 | 69 | 1016.2 |
| 20260505185752 | 64 | 277 | 9.0 | 10.0 | 0.00 | 0.00 | 0.00 | 70 | 1016.2 |
| 20260505185248 | 65 | 186 | 5.0 | 15.0 | 0.00 | 0.00 | 0.00 | 70 | 1016.2 |
| 20260505184744 | 64 | 207 | 6.0 | 8.0 | 0.00 | 0.00 | 0.00 | 71 | 1016.2 |
| 20260505184242 | 64 | 260 | 8.0 | 10.0 | 0.00 | 0.00 | 0.00 | 71 | 1016.2 |
| 20260505183739 | 64 | 198 | 3.0 | 6.0 | 0.00 | 0.00 | 0.00 | 68 | 1015.9 |
| 20260505183236 | 65 | 190 | 8.0 | 9.0 | 0.00 | 0.00 | 0.00 | 67 | 1016.2 |
| 20260505182732 | 64 | 248 | 4.0 | 5.0 | 0.00 | 0.00 | 0.00 | 71 | 1016.2 |
| 20260505182229 | 64 | 256 | 3.0 | 7.0 | 0.00 | 0.00 | 0.00 | 70 | 1016.2 |
| 20260505181725 | 63 | 181 | 7.0 | 13.0 | 0.00 | 0.00 | 0.00 | 70 | 1016.2 |
| 20260505181223 | 64 | 217 | 7.0 | 11.0 | 0.00 | 0.00 | 0.00 | 72 | 1015.9 |
| 20260505180720 | 64 | 172 | 7.0 | 10.0 | 0.00 | 0.00 | 0.00 | 72 | 1015.9 |
| 20260505180216 | 64 | 259 | 9.0 | 11.0 | 0.00 | 0.00 | 0.00 | 74 | 1016.2 |
| 20260505175712 | 64 | 193 | 5.0 | 8.0 | 0.00 | 0.00 | 0.00 | 75 | 1015.9 |
| 20260505175209 | 64 | 242 | 3.0 | 5.0 | 0.00 | 0.00 | 0.00 | 75 | 1015.9 |
| 20260505174705 | 63 | 235 | 5.0 | 7.0 | 0.00 | 0.00 | 0.00 | 76 | 1015.9 |
| 20260505174202 | 64 | 238 | 8.0 | 9.0 | 0.00 | 0.00 | 0.00 | 74 | 1015.9 |
| 20260505173659 | 64 | 211 | 7.0 | 9.0 | 0.00 | 0.00 | 0.00 | 77 | 1015.9 |
| 20260505173155 | 63 | 261 | 5.0 | 9.0 | 0.00 | 0.00 | 0.00 | 78 | 1015.9 |
| 20260505172653 | 62 | 205 | 3.0 | 3.0 | 0.00 | 0.00 | 0.00 | 76 | 1015.9 |
| 20260505172149 | 62 | 172 | 5.0 | 6.0 | 0.00 | 0.00 | 0.00 | 80 | 1015.6 |
| 20260505171649 | 61 | 195 | 4.0 | 7.0 | 0.00 | 0.00 | 0.00 | 80 | 1015.9 |
| 20260505171147 | 62 | 267 | 5.0 | 9.0 | 0.00 | 0.00 | 0.00 | 79 | 1015.9 |
| 20260505170644 | 62 | 228 | 6.0 | 8.0 | 0.00 | 0.00 | 0.00 | 78 | 1015.6 |
| 20260505170140 | 62 | 162 | 9.0 | 11.0 | 0.00 | 0.00 | 0.00 | 78 | 1015.6 |
| 20260505165635 | 62 | 299 | 1.0 | 6.0 | 0.00 | 0.00 | 0.00 | 78 | 1015.6 |
| 20260505165131 | 63 | 214 | 5.0 | 7.0 | 0.00 | 0.00 | 0.00 | 77 | 1015.6 |
| 20260505164626 | 63 | 275 | 0.0 | 0.0 | 0.00 | 0.00 | 0.00 | 76 | 1015.2 |
| 20260505164124 | 62 | 230 | 7.0 | 11.0 | 0.00 | 0.00 | 0.00 | 76 | 1015.6 |
| 20260505163622 | 62 | 248 | 0.0 | 0.0 | 0.00 | 0.00 | 0.00 | 78 | 1015.6 |
| 20260505163120 | 62 | 234 | 7.0 | 8.0 | 0.00 | 0.00 | 0.00 | 77 | 1015.6 |
| 20260505162617 | 62 | 216 | 1.0 | 3.0 | 0.00 | 0.00 | 0.00 | 79 | 1015.6 |
| 20260505162115 | 62 | 232 | 3.0 | 6.0 | 0.00 | 0.00 | 0.00 | 79 | 1015.2 |
| 20260505161611 | 62 | 322 | 1.0 | 5.0 | 0.00 | 0.00 | 0.00 | 80 | 1015.2 |
| 20260505161109 | 62 | 242 | 9.0 | 14.0 | 0.00 | 0.00 | 0.00 | 79 | 1015.2 |
| 20260505160607 | 62 | 208 | 3.0 | 3.0 | 0.00 | 0.00 | 0.00 | 79 | 1014.9 |
| 20260505160104 | 62 | 160 | 0.0 | 2.0 | 0.00 | 0.00 | 0.00 | 79 | 1014.9 |
| 20260505153044 | 61 | 214 | 6.0 | 8.0 | 0.00 | 0.00 | 0.00 | 83 | 1014.9 |
| 20260505152540 | 61 | 190 | 5.0 | 9.0 | 0.00 | 0.00 | 0.00 | 82 | 1014.9 |
| 20260505152036 | 61 | 250 | 7.0 | 8.0 | 0.00 | 0.00 | 0.00 | 82 | 1014.9 |
| 20260505151531 | 60 | 266 | 6.0 | 7.0 | 0.00 | 0.00 | 0.00 | 83 | 1014.9 |
| 20260505151029 | 61 | 158 | 7.0 | 8.0 | 0.00 | 0.00 | 0.00 | 82 | 1014.9 |
| 20260505150525 | 61 | 267 | 0.0 | 0.0 | 0.00 | 0.00 | 0.00 | 82 | 1014.9 |
| 20260505140450 | 59 | 229 | 0.0 | 0.0 | 0.00 | 0.00 | 0.00 | 88 | 1014.6 |
| 20260505124903 | 58 | 240 | 3.0 | 6.0 | 0.00 | 0.00 | 0.00 | 88 | 1014.2 |
| 20260505124400 | 58 | 239 | 0.0 | 0.0 | 0.00 | 0.00 | 0.00 | 88 | 1014.6 |
| 20260505123856 | 58 | 250 | 4.0 | 6.0 | 0.00 | 0.00 | 0.00 | 88 | 1014.6 |
| 20260505123353 | 57 | 258 | 0.0 | 0.0 | 0.00 | 0.00 | 0.00 | 88 | 1014.2 |
| 20260505122849 | 57 | 243 | 3.0 | 6.0 | 0.00 | 0.00 | 0.00 | 88 | 1014.2 |
| 20260505122347 | 57 | 253 | 0.0 | 0.0 | 0.00 | 0.00 | 0.00 | 88 | 1014.2 |
| 20260505121843 | 57 | 222 | 0.0 | 0.0 | 0.00 | 0.00 | 0.00 | 88 | 1013.9 |
| 20260505121340 | 57 | 246 | 0.0 | 0.0 | 0.00 | 0.00 | 0.00 | 88 | 1014.2 |
| 20260505120836 | 58 | 195 | 0.0 | 0.0 | 0.00 | 0.00 | 0.00 | 87 | 1014.2 |
| 20260505120332 | 58 | 283 | 0.0 | 0.0 | 0.00 | 0.00 | 0.00 | 87 | 1014.2 |
| 20260505115831 | 57 | 251 | 0.0 | 0.0 | 0.00 | 0.00 | 0.00 | 86 | 1013.9 |
| 20260505115328 | 58 | 277 | 0.0 | 0.0 | 0.00 | 0.00 | 0.00 | 86 | 1014.2 |
| 20260505114826 | 58 | 271 | 0.0 | 0.0 | 0.00 | 0.00 | 0.00 | 86 | 1014.2 |
| 20260505114322 | 58 | 235 | 0.0 | 0.0 | 0.00 | 0.00 | 0.00 | 86 | 1014.2 |
| 20260505113819 | 58 | 244 | 0.0 | 0.0 | 0.00 | 0.00 | 0.00 | 85 | 1014.2 |
| 20260505113315 | 58 | 236 | 0.0 | 0.0 | 0.00 | 0.00 | 0.00 | 86 | 1014.2 |
| 20260505112811 | 58 | 251 | 0.0 | 0.0 | 0.00 | 0.00 | 0.00 | 87 | 1014.2 |
| 20260505112309 | 58 | 223 | 0.0 | 0.0 | 0.00 | 0.00 | 0.00 | 87 | 1014.2 |
| 20260505111804 | 58 | 215 | 0.0 | 0.0 | 0.00 | 0.00 | 0.00 | 86 | 1014.2 |
| 20260505111300 | 58 | 232 | 0.0 | 0.0 | 0.00 | 0.00 | 0.00 | 86 | 1014.6 |
| 20260505110756 | 59 | 252 | 0.0 | 0.0 | 0.00 | 0.00 | 0.00 | 85 | 1014.2 |
| 20260505110254 | 59 | 259 | 0.0 | 0.0 | 0.00 | 0.00 | 0.00 | 84 | 1014.2 |
| 20260505101728 | 59 | 240 | 0.0 | 0.0 | 0.00 | 0.00 | 0.00 | 82 | 1014.6 |
| 20260505101223 | 59 | 228 | 0.0 | 0.0 | 0.00 | 0.00 | 0.00 | 83 | 1014.2 |
| 20260505100720 | 59 | 224 | 0.0 | 0.0 | 0.00 | 0.00 | 0.00 | 86 | 1014.2 |
| 20260505100217 | 59 | 275 | 0.0 | 0.0 | 0.00 | 0.00 | 0.00 | 85 | 1014.6 |
| 20260505095712 | 59 | 259 | 0.0 | 0.0 | 0.00 | 0.00 | 0.00 | 84 | 1014.2 |
| 20260505095211 | 59 | 210 | 0.0 | 0.0 | 0.00 | 0.00 | 0.00 | 85 | 1014.6 |
| 20260505094706 | 59 | 242 | 0.0 | 0.0 | 0.00 | 0.00 | 0.00 | 85 | 1014.6 |
| 20260505094203 | 59 | 254 | 8.0 | 8.0 | 0.00 | 0.00 | 0.00 | 86 | 1014.6 |
| 20260505093659 | 59 | 250 | 0.0 | 0.0 | 0.00 | 0.00 | 0.00 | 88 | 1014.6 |
| 20260505093157 | 59 | 230 | 0.0 | 0.0 | 0.00 | 0.00 | 0.00 | 88 | 1014.6 |
| 20260505092653 | 59 | 243 | 0.0 | 0.0 | 0.00 | 0.00 | 0.00 | 89 | 1014.9 |
| 20260505092152 | 59 | 193 | 0.0 | 0.0 | 0.00 | 0.00 | 0.00 | 90 | 1014.9 |
| 20260505091649 | 59 | 170 | 0.0 | 0.0 | 0.00 | 0.00 | 0.00 | 91 | 1014.9 |